Location: Gandikunta
(16.3784°N, 80.8378°E)
Time: 04:08:29
(UTC+00:00)

Milstar 3 Cent rocket - Pass Details

Date: 19 May 2025
Orbit: 706 x 5144 km, 28.3° (Epoch: 13 June)

Event Time Altitude Azimuth Distance (km) Brightness Sun altitude
Rises 16:40:07 0° 293° (WNW) 8,007 7.8 -44.3°
Reaches altitude 10° 16:46:38 10° 294° (WNW) 6,272 7.1 -45.2°
Enters shadow 17:00:35 59° 296° (WNW) 2,232 4.2 -47.2°
